Regional Weather Roundup
Issued by NWS Memphis, TN

Home | Current Version | Previous Version | Text Only | Print | Product List | Glossary On
Versions: 1 2 3 4 5 6 7 8 9 10 11 12 13 14 15 16 17 18 19 20 21 22 23 24 25 26 27 28 29 30 31 32 33 34 35 36 37 38 39 40 41 42 43 44 45 46 47 48 49 50
239
ASUS44 KMEG 240910
RWRMEG
MEMPHIS CWA HOURLY WEATHER ROUNDUP
NATIONAL WEATHER SERVICE MEMPHIS TN
400 AM CDT SAT JUN 24 2017

...WEST TENNESSEE...

CITY           SKY/WX    TMP DP  RH WIND       PRES   REMARKS
MEMPHIS INTL   MOCLDY    71  69  93 N5        29.97R
NWS MEMPHIS      N/A     70 N/A N/A MISG        N/A
JACKSON        PTCLDY    71  70  96 N5        29.96R
COVINGTON      CLEAR     68  68 100 NW6       29.97R
SOMERVILLE     CLEAR     72  70  94 CALM      29.95R
BOLIVAR        CLOUDY    70  70 100 NW5       29.95R
LEXINGTON      MOCLDY    72  70  94 N5        29.95R
SELMER         PTCLDY    72  70  94 N5        29.95R
SAVANNAH       CLOUDY    72  72 100 CALM      29.94R
UNION CITY     CLEAR     66  64  94 CALM      29.97R
PARIS          CLEAR     66  66 100 CALM      29.96R
HUNTINGDON     CLEAR     68  66  94 CALM      29.96R


...EASTERN ARKANSAS...

CITY           SKY/WX    TMP DP  RH WIND       PRES   REMARKS
JONESBORO      CLOUDY    69  65  86 NW6       29.99R
WEST MEMPHIS   CLOUDY    69  69 100 N3        29.97R
BATESVILLE     MOCLDY    66  64  94 W5        30.04R
WALNUT RIDGE   MOCLDY    68  61  77 N13       30.01R
BLYTHEVILLE    PTCLDY    68  67  96 N7        29.99R
SEARCY         MOCLDY    69  66  90 NW7       30.04R
STUTTGART      PTCLDY    70  57  64 NW7       30.01R
PINE BLUFF     CLOUDY    71  69  93 W3        30.01R
MONTICELLO     CLOUDY    70  69  97 W5        30.00R


...NORTH MISSISSIPPI...

CITY           SKY/WX    TMP DP  RH WIND       PRES   REMARKS
TUPELO         CLOUDY    72  69  90 W3        29.94R
BATESVILLE     CLOUDY    70  69  95 CALM      29.96S
TUNICA           N/A     68  68 100 NW6       29.98R
CLARKSDALE       N/A     72  72 100 NW6       29.97R
CORINTH        CLOUDY    72  70  94 CALM      29.94S
GREENWOOD      MOCLDY    72  71  97 CALM      29.98R
COLUMBUS       MOCLDY    75  75 100 NW3       29.93R
STARKVILLE     CLOUDY    72  72 100 CALM      29.97R
GOLDEN TRIANGL CLOUDY    73  68  83 NW6       29.91R


...SOUTHEAST MISSOURI...

CITY           SKY/WX    TMP DP  RH WIND       PRES   REMARKS
MALDEN         PTCLDY    68  59  73 N7        30.01R
WEST PLAINS    PTCLDY    63  54  72 N6        30.09R
POPLAR BLUFF   CLOUDY    66  60  81 N7        30.00R
CAPE GIRARDEAU PTCLDY    68  57  68 N9        30.00R


...NORTHWEST ALABAMA...

CITY           SKY/WX    TMP DP  RH WIND       PRES   REMARKS
MUSCLE SHOALS  CLOUDY    74  72  93 CALM      29.94R


...MIDDLE TENNESSEE...

CITY           SKY/WX    TMP DP  RH WIND       PRES   REMARKS
NASHVILLE      MOCLDY    74  67  78 NW6       29.94R
CLARKSVILLE    CLEAR     69  67  93 W5        29.95R
COLUMBIA       MOCLDY    73  72  94 VRB3      29.93R


...WESTERN KENTUCKY...

CITY           SKY/WX    TMP DP  RH WIND       PRES   REMARKS
PADUCAH        PTCLDY    68  58  70 N8        29.97R
FORT CAMPBELL  CLEAR     68  68 100 CALM      29.95R


...CENTRAL ARKANSAS...

CITY           SKY/WX    TMP DP  RH WIND       PRES   REMARKS
LITTLE ROCK    CLOUDY    70  69  97 N10       30.02R


SKY/WX REPORTED AS FAIR MEANS FEW OR NO CLOUDS BELOW
12 THOUSAND FEET.





USA.gov is the U.S. government's official web portal to all federal, state and local government web resources and services.